Location: *
(38.3914°N, 75.0697°W)
Time: 08:22:07
(UTC+00:00)

Cosmos 1939 Rocket - Pass Details

Date: 17 February 2020
Orbit: 532 x 585 km, 97.4° (Epoch: 01 April)

Event Time Altitude Azimuth Distance (km) Brightness Sun altitude
Rises 00:06:09 0° 181° (S) 2,757 6.4 -17.7°
Reaches altitude 10° 00:08:20 10° 188° (S) 1,873 5.6 -18.1°
Maximum altitude 00:12:14 45° 261° (W) 793 4.1 -18.8°
Drops below altitude 10° 00:16:13 10° 335° (NNW) 1,908 5.9 -19.6°
Sets 00:18:28 0° 342° (NNW) 2,816 6.7 -20.1°
